Location: Willingham
(52.3167°N, 0.0667°E)
Time: 23:56:01
(UTC+00:00)

Cosmos 2333 Rocket - Pass Details

Date: 19 May 2025
Orbit: 840 x 862 km, 70.8° (Epoch: 18 June)

Event Time Altitude Azimuth Distance (km) Brightness Sun altitude
Rises 22:02:32 0° 328° (NNW) 3,445 7.4 -13.6°
Reaches altitude 10° 22:05:15 10° 338° (NNW) 2,502 6.1 -13.8°
Maximum altitude 22:10:27 34° 43° (NE) 1,386 3.5 -14.1°
Drops below altitude 10° 22:15:35 10° 107° (ESE) 2,478 4.2 -14.5°
Enters shadow 22:15:53 - 109° (ESE) 2,578 4.3 -14.5°
